Hourly Weather Owambo

Today, 6 May, Thursday

Time Temperature Precipitation Wind Pressure Humidity
00:00 +19°C° 0 mm 3 mps 663 mmHg 41%
01:00 +18°C° 0 mm 3 mps 663 mmHg 42%
02:00 +18°C° 0 mm 3 mps 663 mmHg 43%
03:00 +18°C° 0 mm 3 mps 663 mmHg 44%
04:00 +17°C° 0 mm 3 mps 663 mmHg 44%
05:00 +18°C° 0 mm 3 mps 663 mmHg 44%
06:00 +18°C° 0 mm 3 mps 664 mmHg 44%
07:00 +18°C° 0 mm 3 mps 664 mmHg 46%
08:00 +21°C° 0 mm 4 mps 665 mmHg 41%
09:00 +23°C° 0 mm 4 mps 666 mmHg 36%
10:00 +27°C° 0 mm 5 mps 667 mmHg 31%
11:00 +28°C° 0 mm 4 mps 666 mmHg 29%
12:00 +29°C° 0 mm 4 mps 665 mmHg 28%
13:00 +30°C° 0 mm 3 mps 665 mmHg 27%
14:00 +30°C° 0 mm 3 mps 664 mmHg 29%
15:00 +29°C° 0 mm 2 mps 664 mmHg 30%
16:00 +29°C° 0 mm 2 mps 664 mmHg 32%
17:00 +27°C° 0 mm 2 mps 664 mmHg 35%
18:00 +25°C° 0 mm 2 mps 664 mmHg 38%
19:00 +24°C° 0 mm 2 mps 664 mmHg 41%
20:00 +24°C° 0 mm 2 mps 664 mmHg 41%
21:00 +24°C° 0 mm 1 mps 664 mmHg 41%
22:00 +24°C° 0 mm 1 mps 665 mmHg 41%
23:00 +23°C° 0 mm 2 mps 665 mmHg 42%

Tomorrow, 7 May, Friday

Time Temperature Precipitation Wind Pressure Humidity
00:00 +23°C° 0 mm 2 mps 665 mmHg 43%
01:00 +22°C° 0 mm 3 mps 665 mmHg 44%
02:00 +21°C° 0 mm 3 mps 665 mmHg 45%
03:00 +21°C° 0 mm 3 mps 665 mmHg 45%
04:00 +20°C° 0 mm 2 mps 665 mmHg 46%
05:00 +20°C° 0 mm 3 mps 665 mmHg 46%
06:00 +20°C° 0 mm 4 mps 666 mmHg 46%
07:00 +20°C° 0 mm 4 mps 666 mmHg 46%
08:00 +22°C° 0 mm 4 mps 666 mmHg 42%
09:00 +25°C° 0 mm 5 mps 667 mmHg 37%
10:00 +27°C° 0 mm 5 mps 668 mmHg 32%
11:00 +28°C° 0 mm 4 mps 667 mmHg 31%
12:00 +29°C° 0 mm 4 mps 667 mmHg 29%
13:00 +30°C° 0 mm 3 mps 666 mmHg 28%
14:00 +30°C° 0 mm 3 mps 666 mmHg 28%
15:00 +30°C° 0 mm 2 mps 666 mmHg 28%
16:00 +30°C° 0 mm 1 mps 665 mmHg 28%
17:00 +29°C° 0 mm 2 mps 665 mmHg 32%
18:00 +27°C° 0 mm 2 mps 665 mmHg 35%
19:00 +25°C° 0 mm 3 mps 665 mmHg 39%
20:00 +24°C° 0 mm 3 mps 665 mmHg 40%
21:00 +24°C° 0 mm 3 mps 665 mmHg 41%
22:00 +22°C° 0 mm 3 mps 665 mmHg 43%
23:00 +22°C° 0 mm 3 mps 665 mmHg 43%

Day after tomorrow, 8 May, Saturday

Time Temperature Precipitation Wind Pressure Humidity
00:00 +22°C° 0 mm 3 mps 665 mmHg 42%
01:00 +21°C° 0 mm 3 mps 665 mmHg 42%
02:00 +21°C° 0 mm 3 mps 665 mmHg 42%
03:00 +21°C° 0 mm 3 mps 665 mmHg 42%
04:00 +21°C° 0 mm 3 mps 665 mmHg 43%
05:00 +21°C° 0 mm 3 mps 665 mmHg 42%
06:00 +21°C° 0 mm 3 mps 665 mmHg 42%
07:00 +21°C° 0 mm 3 mps 666 mmHg 42%
08:00 +24°C° 0 mm 3 mps 667 mmHg 38%
09:00 +25°C° 0 mm 3 mps 667 mmHg 35%
10:00 +27°C° 0 mm 4 mps 668 mmHg 31%
11:00 +29°C° 0 mm 3 mps 667 mmHg 29%
12:00 +30°C° 0 mm 3 mps 667 mmHg 27%
13:00 +31°C° 0 mm 3 mps 666 mmHg 25%
14:00 +31°C° 0 mm 2 mps 666 mmHg 25%
15:00 +31°C° 0 mm 2 mps 665 mmHg 25%
16:00 +31°C° 0 mm 1 mps 665 mmHg 25%
17:00 +29°C° 0 mm 2 mps 665 mmHg 28%
18:00 +27°C° 0 mm 2 mps 665 mmHg 31%
19:00 +26°C° 0 mm 2 mps 665 mmHg 35%
20:00 +25°C° 0 mm 3 mps 665 mmHg 36%
21:00 +24°C° 0 mm 3 mps 665 mmHg 37%
22:00 +23°C° 0 mm 4 mps 666 mmHg 38%
23:00 +24°C° 0 mm 3 mps 665 mmHg 38%

9 May, Sunday

Time Temperature Precipitation Wind Pressure Humidity
00:00 +22°C° 0 mm 3 mps 665 mmHg 39%
01:00 +22°C° 0 mm 3 mps 665 mmHg 40%
02:00 +22°C° 0 mm 3 mps 665 mmHg 41%
03:00 +21°C° 0 mm 4 mps 665 mmHg 42%
04:00 +21°C° 0 mm 4 mps 665 mmHg 43%
05:00 +21°C° 0 mm 4 mps 665 mmHg 43%
06:00 +21°C° 0 mm 4 mps 666 mmHg 44%
07:00 +21°C° 0 mm 5 mps 666 mmHg 44%
08:00 +23°C° 0 mm 6 mps 667 mmHg 40%
09:00 +26°C° 0 mm 7 mps 668 mmHg 35%
10:00 +28°C° 0 mm 8 mps 668 mmHg 31%
11:00 +29°C° 0 mm 7 mps 668 mmHg 29%
12:00 +30°C° 0 mm 6 mps 667 mmHg 26%
13:00 +33°C° 0 mm 5 mps 666 mmHg 24%
14:00 +32°C° 0 mm 5 mps 666 mmHg 24%
15:00 +32°C° 0 mm 5 mps 666 mmHg 24%
16:00 +32°C° 0 mm 4 mps 666 mmHg 24%
17:00 +29°C° 0 mm 4 mps 666 mmHg 28%
18:00 +26°C° 0 mm 4 mps 666 mmHg 32%
19:00 +23°C° 0 mm 4 mps 666 mmHg 36%
20:00 +22°C° 0 mm 4 mps 666 mmHg 37%
21:00 +22°C° 0 mm 4 mps 666 mmHg 38%
22:00 +21°C° 0 mm 4 mps 666 mmHg 39%
23:00 +20°C° 0 mm 4 mps 666 mmHg 40%

10 May, Monday

Time Temperature Precipitation Wind Pressure Humidity
00:00 +20°C° 0 mm 5 mps 666 mmHg 41%
01:00 +19°C° 0 mm 5 mps 666 mmHg 41%
02:00 +17°C° 0 mm 6 mps 666 mmHg 37%
03:00 +17°C° 0 mm 6 mps 666 mmHg 32%
04:00 +17°C° 0 mm 6 mps 666 mmHg 27%
05:00 +16°C° 0 mm 6 mps 666 mmHg 27%
06:00 +16°C° 0 mm 6 mps 667 mmHg 27%
07:00 +16°C° 0 mm 6 mps 667 mmHg 27%
08:00 +20°C° 0 mm 7 mps 668 mmHg 25%
09:00 +22°C° 0 mm 7 mps 668 mmHg 23%
10:00 +26°C° 0 mm 7 mps 669 mmHg 20%
11:00 +27°C° 0 mm 7 mps 669 mmHg 19%
12:00 +29°C° 0 mm 6 mps 668 mmHg 18%
13:00 +30°C° 0 mm 6 mps 668 mmHg 17%
14:00 +30°C° 0 mm 5 mps 667 mmHg 16%
15:00 +29°C° 0 mm 5 mps 667 mmHg 14%
16:00 +29°C° 0 mm 5 mps 667 mmHg 13%
17:00 +27°C° 0 mm 4 mps 667 mmHg 16%
18:00 +23°C° 0 mm 4 mps 667 mmHg 20%
19:00 +20°C° 0 mm 4 mps 667 mmHg 23%
20:00 +19°C° 0 mm 4 mps 667 mmHg 25%
21:00 +19°C° 0 mm 4 mps 667 mmHg 27%
22:00 +18°C° 0 mm 4 mps 667 mmHg 28%
23:00 +17°C° 0 mm 4 mps 667 mmHg 30%

11 May, Tuesday

Time Temperature Precipitation Wind Pressure Humidity
00:00 +15°C° 0 mm 4 mps 667 mmHg 32%
01:00 +15°C° 0 mm 4 mps 666 mmHg 34%
02:00 +14°C° 0 mm 4 mps 666 mmHg 36%
03:00 +14°C° 0 mm 4 mps 666 mmHg 38%
04:00 +13°C° 0 mm 4 mps 666 mmHg 39%
05:00 +14°C° 0 mm 4 mps 667 mmHg 40%
06:00 +14°C° 0 mm 4 mps 667 mmHg 40%
07:00 +14°C° 0 mm 5 mps 667 mmHg 40%
08:00 +17°C° 0 mm 5 mps 668 mmHg 34%
09:00 +22°C° 0 mm 6 mps 669 mmHg 28%
10:00 +26°C° 0 mm 7 mps 670 mmHg 22%
11:00 +27°C° 0 mm 6 mps 669 mmHg 20%
12:00 +29°C° 0 mm 6 mps 669 mmHg 18%
13:00 +30°C° 0 mm 5 mps 668 mmHg 16%
14:00 +30°C° 0 mm 5 mps 668 mmHg 16%
15:00 +30°C° 0 mm 4 mps 668 mmHg 15%
16:00 +29°C° 0 mm 4 mps 667 mmHg 15%
17:00 +27°C° 0 mm 4 mps 667 mmHg 19%
18:00 +23°C° 0 mm 4 mps 667 mmHg 22%
19:00 +20°C° 0 mm 4 mps 667 mmHg 26%
20:00 +19°C° 0 mm 4 mps 667 mmHg 29%
21:00 +19°C° 0 mm 4 mps 667 mmHg 31%
22:00 +18°C° 0 mm 4 mps 667 mmHg 34%
23:00 +17°C° 0 mm 4 mps 667 mmHg 37%
Show more

We Need Your Consent

Meteoprog and our Service Providers may store and access personal data such as cookies, device identifiers or other similar technologies on your device and process such data to personalise content and ads, as well as provide social media features and to analyse the traffic.

  • Store and/or access information on your device

    Cookies, device identifiers or other information can be stored or accessed on your device for the purposes indicated above.

  • Personalised ads and content, ad and content measurement, audience insights, and products development

    Ads and content can be personalised based on a profile. More data can be added to better personalise ads and content. Ad and content performance can be measured. Insights about the audience who saw the ads and content can be derived. Such data can be used to develop or improve user’s experience, systems and software.

By clicking ‘I Agree’ you will allow the use of indicated cookies, device identifiers, web beacons or other similar technologies. Your settings can be changed in the browser on your device.

For certain purposes, legitimate interests may be relied on, rather than consent. You can read more about this in our Privacy and Cookie Policy.